AirNav   Everest Fuels
 
 410 users online  

81IL Illinois Valley Parachute Club Airport
Minier, Illinois, USA

GOING TO MINIER?


FAA INFORMATION EFFECTIVE 21 MAY 2020

Location

FAA Identifier: 81IL
Lat/Long: 40-26-07.1420N 089-21-33.3350W
40-26.119033N 089-21.555583W
40.4353172,-89.3592597
(estimated)
Elevation: 646 ft. / 196.9 m (surveyed)
Variation: 01E (1985)
From city: 2 miles W of MINIER, IL
Time zone: UTC -5 (UTC -6 during Standard Time)
Zip code: 61759

Airport Operations

Airport use: Private use. Permission required prior to landing
Activation date: 04/1972
Control tower: no
ARTCC: CHICAGO CENTER
FSS: KANKAKEE FLIGHT SERVICE STATION
Attendance: UNATNDD
Wind indicator: no
Segmented circle: no

Airport Communications

WX AWOS-3 at AAA (17 nm S): 118.775 (217-732-9605)

Nearby radio navigation aids

VOR radial/distance  VOR name  Freq  Var
BMIr259/19.7BLOOMINGTON VOR/DME108.2003E
PIAr123/24.6PEORIA VORTAC115.2004E
PNTr228/36.7PONTIAC VOR/DME109.6003E
SPIr023/38.6SPINNER VORTAC112.7001W

 
NDB name  Hdg/Dist  Freq  Var  ID
TUNGG136/14.835602WPI .--. ..
ABRAHAM357/16.532900EAAA .- .- .-

Airport Services

Airframe service: NONE
Powerplant service: NONE

Runway Information

Runway E/W

Dimensions: 2640 x 70 ft. / 805 x 21 m
Surface: turf
RUNWAY E  RUNWAY W
Traffic pattern: leftleft

Airport Ownership and Management from official FAA records

Ownership: Privately-owned
Owner: IL VALLEY PARACHUTE CLUB
C/O JEFF HAYES, 408 W. VIRGINIA AVE.
NORMAL, IL 61761
Phone 309-712-4631
Manager: NICK STONER
1004 LAWNDALE AVE
PEKIN, IL 61554
Phone (309) 241-7672

Airport Operational Statistics

Aircraft based on the field: 2
Single engine airplanes: 2
    

Additional Remarks

FOR CD CTC CHICAGO ARTCC AT 630-906-8921.

Instrument Procedures

There are no published instrument procedures at 81IL.

Some nearby airports with instrument procedures:

C15 - Pekin Municipal Airport (15 nm W)
KAAA - Logan County Airport (17 nm S)
KBMI - Central Illinois Regional Airport at Bloomington-Normal (20 nm E)
KPIA - General Downing - Peoria International Airport (21 nm NW)
3MY - Mount Hawley Auxiliary Airport (25 nm NW)
 
Loc | Ops | Rwys | IFR | FBO | Links
Com | Nav | Svcs | Stats | Notes
Area around 81IL (Illinois Valley Parachute Club Airport)
 
Road maps at: MapQuest Bing Google
 
Aerial photo
WARNING: Photo may not be current or correct
Aerial photo of 81IL (Illinois Valley Parachute Club Airport)
Do you have a better or more recent aerial photo of Illinois Valley Parachute Club Airport that you would like to share? If so, please send us your photo.

 
Sectional chart

 
Airport distance calculator
Flying to Illinois Valley Parachute Club Airport? Find the distance to fly.

From to 81IL

Sunrise and sunset
Times for 31-May-2020
 Local
(UTC-5)
 Zulu
(UTC)
Morning civil twilight04:5809:58
Sunrise05:3010:30
Sunset20:2001:20
Evening civil twilight20:5301:53

Current date and time
Zulu (UTC)  31-May-2020 10:27:03
Local (UTC-5)  31-May-2020 05:27:03
 
METAR
KAAA 
16nm S 
311015Z AUTO 07003KT 10SM CLR 12/09 A3027 RMK AO2 T01190085
KPIA 
20nm NW 
310954Z 06007KT 10SM CLR 11/08 A3027 RMK AO2 SLP250 T01110078
KBMI 
20nm E 
310956Z AUTO 07006KT 10SM CLR 10/08 A3029 RMK AO2 SLP254 T01000083
TAF
KPIA 
20nm NW 
310520Z 3106/0106 VRB04KT P6SM SKC FM311300 09006KT P6SM SKC FM311800 VRB04KT P6SM SCT060
KBMI 
20nm E 
310520Z 3106/0106 VRB04KT P6SM SKC FM311200 08005KT P6SM SKC FM311900 VRB04KT P6SM SCT060
NOTAMs
Click for the latest NOTAMs
NOTAMs are issued by the DoD/FAA and will open in a separate window not controlled by AirNav.

 

 
 

Would you like to see your business listed on this page?

 If your business provides an interesting product or service to pilots, flight crews, aircraft, or users of the Illinois Valley Parachute Club Airport, you should consider listing it here.  To start the listing process, click on the button below
 
Add a business
 

Other Pages about Illinois Valley Parachute Club Airport

Update a link
 
Copyright © AirNav, LLC. All rights reserved. Privacy Policy  Contact